Location: 22
(39.7117°N, 89.5929°W)
Time: 05:39:27
(UTC-06:00)

Vanguard 1 Rocket - Visible Passes

Search period start: 23 February 2024 00:00
Search period end: 04 March 2024 00:00
Orbit: 654 x 4218 km, 34.3° (Epoch: 22 February)

Date Brightness Start Highest point End Pass type
(mag) Time Alt. Az. Time Alt. Az. Time Alt. Az.
23 Feb 11.6 05:03:10 10° S 05:19:00 23° SE 05:30:14 10° E visible
24 Feb 11.9 03:53:39 10° SSE 04:05:00 15° SE 04:14:23 10° ESE visible
24 Feb 11.0 06:14:58 10° SSW 06:34:20 39° SSE 06:45:54 10° E visible
25 Feb 11.3 05:01:41 10° SSW 05:20:27 30° SSE 05:33:11 10° E visible
26 Feb 11.7 03:50:22 10° S 04:06:20 21° SE 04:18:48 10° E visible
27 Feb 11.9 02:43:31 10° SSE 02:52:13 13° SE 03:00:07 10° ESE visible
27 Feb 11.1 05:00:49 10° SSW 05:21:48 37° SSE 05:35:41 10° E visible
28 Feb 11.4 03:48:29 10° S 04:07:33 28° SE 04:22:01 10° E visible
29 Feb 11.7 02:38:48 10° S 02:53:20 18° SE 03:05:57 10° E visible
29 Feb 11.0 05:00:25 10° SSW 05:23:05 44° SSE 05:37:53 10° E visible
01 Mar 11.3 03:47:22 10° SSW 04:08:39 34° SE 04:24:38 10° E visible
02 Mar 11.5 02:36:24 10° S 02:54:17 24° SE 03:09:41 10° E visible
02 Mar 10.8 05:00:23 10° SW 05:24:19 51° SSE 05:39:55 10° E visible
03 Mar 11.7 01:29:43 10° SSE 01:40:13 14° SE 01:50:45 10° ESE visible
03 Mar 11.1 03:47:02 10° SSW 04:09:40 41° SSE 04:26:52 10° E visible
